GW5496 Weather Reports


time (UTC)temp
C
wind
direction
speed
KPH
gust
KPH
rain 1hr
cm
rain 24hr
cm
rain mn
cm
humidity
%
barometer
mb
20260507004058 12 129 3.2 4.8 0.00 0.05 0.05 70 1024.2
20260507003554 12 120 4.8 8.0 0.00 0.05 0.05 73 1024.0
20260507003049 12 143 6.4 6.4 0.00 0.05 0.05 70 1024.0
20260507002546 11 121 3.2 8.0 0.00 0.05 0.05 72 1023.8
20260507002041 11 101 3.2 8.0 0.00 0.05 0.05 72 1023.8
20260507001538 11 115 3.2 14.5 0.00 0.05 0.05 72 1023.8
20260507001036 11 56 6.4 9.7 0.00 0.05 0.05 75 1023.8
20260507000532 11 74 3.2 6.4 0.00 0.05 0.05 72 1023.8
20260507000028 11 67 3.2 6.4 0.00 0.05 0.05 67 1023.9
20260506235525 11 106 3.2 3.2 0.00 0.05 0.05 69 1023.6
20260506235021 11 101 3.2 4.8 0.00 0.05 0.05 68 1024.0
20260506234519 11 62 4.8 4.8 0.00 0.05 0.05 68 1023.9
20260506234016 11 95 3.2 6.4 0.00 0.05 0.05 67 1023.8
20260506233512 11 82 3.2 6.4 0.00 0.05 0.05 69 1023.7
20260506233009 11 62 3.2 6.4 0.00 0.05 0.05 69 1023.7
20260506232505 11 45 4.8 6.4 0.00 0.05 0.05 69 1023.6
20260506232001 11 63 3.2 3.2 0.00 0.05 0.05 68 1023.8
20260506231458 11 118 3.2 3.2 0.00 0.05 0.05 65 1023.6
20260506230956 11 120 4.8 4.8 0.00 0.05 0.05 66 1023.6
20260506230452 11 143 3.2 4.8 0.00 0.05 0.05 66 1023.6
20260506225949 11 137 3.2 4.8 0.00 0.05 0.05 65 1023.6
20260506225446 11 144 3.2 3.2 0.00 0.05 0.05 67 1023.6
20260506224942 11 60 1.6 3.2 0.00 0.05 0.05 66 1023.5
20260506224440 11 74 3.2 4.8 0.00 0.05 0.05 66 1023.5
20260506223936 12 74 3.2 6.4 0.00 0.05 0.05 66 1023.6
20260506223432 12 28 6.4 6.4 0.00 0.05 0.05 66 1023.6
20260506222930 12 85 3.2 6.4 0.00 0.05 0.05 63 1023.6
20260506222426 12 19 3.2 6.4 0.00 0.05 0.05 65 1023.6
20260506221923 12 62 8.0 8.0 0.00 0.05 0.05 68 1023.5
20260506221420 11 49 3.2 6.4 0.00 0.05 0.05 67 1023.7
20260506220918 11 53 3.2 8.0 0.00 0.05 0.05 68 1023.7
20260506220413 11 50 3.2 4.8 0.00 0.05 0.05 67 1023.6
20260506215910 11 60 1.6 4.8 0.00 0.05 0.05 68 1023.7
20260506215406 11 50 6.4 8.0 0.00 0.05 0.05 67 1023.6
20260506214902 11 30 4.8 6.4 0.00 0.05 0.05 70 1023.4
20260506214359 11 71 4.8 6.4 0.00 0.05 0.05 71 1023.5
20260506213857 11 16 4.8 9.7 0.00 0.05 0.05 71 1023.3
20260506213354 11 59 4.8 8.0 0.00 0.05 0.05 72 1023.6
20260506212851 11 69 4.8 8.0 0.00 0.05 0.05 75 1023.4
20260506212347 10 68 4.8 8.0 0.00 0.05 0.05 75 1023.5
20260506211842 10 54 6.4 8.0 0.00 0.05 0.05 76 1023.5
20260506211338 10 54 6.4 8.0 0.00 0.05 0.05 76 1023.5
20260506210836 11 44 4.8 8.0 0.00 0.05 0.05 76 1023.4
20260506210332 12 56 4.8 9.7 0.00 0.05 0.05 73 1023.5
20260506205830 11 55 8.0 11.3 0.00 0.05 0.05 69 1023.5
20260506205325 12 24 3.2 9.7 0.00 0.05 0.05 68 1023.2
20260506204822 11 38 8.0 11.3 0.00 0.05 0.05 69 1023.3
20260506204320 12 56 6.4 11.3 0.00 0.05 0.05 67 1023.3
20260506203817 12 61 8.0 11.3 0.00 0.05 0.05 67 1023.3
20260506203314 11 45 6.4 9.7 0.00 0.05 0.05 70 1023.2
20260506202811 11 45 6.4 9.7 0.00 0.05 0.05 70 1023.2
20260506202308 11 57 3.2 11.3 0.00 0.05 0.05 71 1023.1
20260506201804 11 29 3.2 11.3 0.00 0.05 0.05 70 1023.0
20260506201302 11 49 6.4 11.3 0.00 0.05 0.05 73 1023.3
20260506200759 11 23 6.4 6.4 0.00 0.05 0.05 74 1023.1
20260506200255 10 37 4.8 6.4 0.00 0.05 0.05 72 1023.1
20260506195751 11 23 4.8 8.0 0.00 0.05 0.05 73 1022.9
20260506195248 11 19 4.8 8.0 0.00 0.05 0.05 72 1022.9
20260506194745 10 50 6.4 8.0 0.00 0.05 0.05 76 1022.8
20260506194241 10 65 4.8 6.4 0.00 0.05 0.05 76 1022.8
20260506193740 10 45 3.2 8.0 0.00 0.05 0.05 74 1022.8
20260506193236 10 20 4.8 9.7 0.00 0.05 0.05 76 1022.6
20260506192732 10 55 6.4 9.7 0.00 0.05 0.05 76 1022.7
20260506192229 10 34 4.8 11.3 0.00 0.05 0.05 76 1022.5
20260506191726 10 41 9.7 11.3 0.00 0.05 0.05 75 1022.6
20260506191222 10 62 6.4 9.7 0.00 0.05 0.05 78 1022.8
20260506190720 10 79 6.4 9.7 0.00 0.05 0.05 77 1022.4
20260506190216 9 64 8.0 8.0 0.00 0.05 0.05 77 1022.7
20260506185713 9 53 6.4 8.0 0.00 0.05 0.05 77 1022.7
20260506185209 9 75 1.6 3.2 0.00 0.05 0.05 75 1022.6
20260506184702 9 100 3.2 3.2 0.00 0.05 0.05 76 1022.6
20260506184159 9 93 3.2 4.8 0.00 0.05 0.05 75 1022.5
20260506183655 8 79 3.2 4.8 0.00 0.05 0.05 76 1022.7
20260506183151 8 64 3.2 6.4 0.00 0.05 0.05 76 1022.6
20260506182649 9 57 4.8 6.4 0.00 0.05 0.05 76 1022.5
20260506182145 9 75 6.4 6.4 0.00 0.05 0.05 78 1022.6
20260506181643 9 67 4.8 6.4 0.00 0.05 0.05 79 1022.6
20260506181140 9 52 3.2 6.4 0.00 0.05 0.05 78 1022.6
20260506180637 9 62 6.4 6.4 0.00 0.05 0.05 80 1022.7
20260506180133 9 34 6.4 6.4 0.00 0.05 0.05 78 1022.5
20260506175630 8 61 6.4 9.7 0.00 0.05 0.05 80 1022.7
20260506175126 8 86 6.4 8.0 0.00 0.05 0.05 81 1022.5
20260506174625 8 62 4.8 6.4 0.00 0.05 0.05 80 1022.6
20260506174121 9 82 4.8 6.4 0.00 0.05 0.05 83 1022.5
20260506173619 8 38 3.2 6.4 0.00 0.05 0.05 81 1022.5
20260506173115 9 91 3.2 6.4 0.00 0.05 0.05 80 1022.5
20260506172613 9 48 6.4 9.7 0.00 0.05 0.05 82 1022.6
20260506172109 8 70 4.8 9.7 0.00 0.05 0.05 82 1022.6
20260506171607 8 84 4.8 8.0 0.00 0.05 0.05 82 1022.6
20260506171104 8 62 6.4 8.0 0.00 0.05 0.05 81 1022.5
20260506170601 8 64 6.4 9.7 0.00 0.05 0.05 83 1022.5
20260506170059 8 76 3.2 8.0 0.00 0.05 0.05 83 1022.5
20260506165557 8 53 8.0 9.7 0.00 0.05 0.05 84 1022.6
20260506165053 8 66 4.8 9.7 0.00 0.05 0.05 84 1022.5
20260506164550 8 82 4.8 9.7 0.00 0.05 0.05 82 1022.5
20260506164047 8 67 4.8 8.0 0.00 0.05 0.05 81 1022.6
20260506163543 8 41 6.4 8.0 0.00 0.05 0.05 81 1022.6
20260506163039 8 81 3.2 4.8 0.00 0.05 0.05 79 1022.7
20260506162536 8 76 3.2 4.8 0.00 0.05 0.05 79 1022.3
20260506162033 8 94 3.2 3.2 0.00 0.05 0.05 80 1022.4
20260506161530 8 78 3.2 4.8 0.00 0.05 0.05 80 1022.5
20260506161027 8 94 3.2 6.4 0.00 0.05 0.05 82 1022.5
20260506160525 8 98 3.2 4.8 0.00 0.05 0.05 84 1022.4
20260506160022 8 60 4.8 6.4 0.00 0.05 0.05 83 1022.3
20260506155520 8 69 3.2 6.4 0.00 0.05 0.05 85 1022.2
20260506153651 8 127 3.2 4.8 0.00 0.05 0.05 88 1022.2
20260506153149 7 116 4.8 4.8 0.00 0.05 0.05 89 1022.0
20260506152645 8 133 6.4 8.0 0.00 0.05 0.05 90 1022.0
20260506152143 8 110 6.4 6.4 0.00 0.05 0.05 89 1022.0
20260506151641 8 117 4.8 6.4 0.00 0.05 0.05 92 1022.0
20260506151138 8 101 4.8 4.8 0.00 0.05 0.05 94 1022.0
20260506150635 7 106 6.4 6.4 0.00 0.05 0.05 94 1021.8
20260506150132 7 114 6.4 6.4 0.00 0.05 0.05 95 1021.9
20260506145629 7 108 4.8 6.4 0.00 0.05 0.05 95 1021.8
20260506145125 7 112 4.8 6.4 0.00 0.05 0.05 96 1022.0
20260506144623 7 110 4.8 6.4 0.00 0.05 0.05 96 1021.9
20260506144119 7 114 4.8 6.4 0.00 0.05 0.05 96 1021.7
20260506143617 7 119 4.8 6.4 0.00 0.05 0.05 96 1021.6
20260506143115 7 103 4.8 6.4 0.05 0.05 0.05 97 1021.7
20260506142613 7 111 4.8 6.4 0.05 0.05 0.05 97 1021.7
20260506142111 7 114 4.8 6.4 0.00 0.05 0.05 97 1021.7
20260506141608 7 88 4.8 6.4 0.00 0.05 0.05 97 1021.5
20260506141107 7 88 4.8 6.4 0.00 0.05 0.05 97 1021.5
20260506140604 7 122 4.8 6.4 0.00 0.05 0.05 96 1021.6
20260506140101 7 126 8.0 8.0 0.00 0.05 0.05 96 1021.6
20260506135558 7 116 4.8 6.4 0.00 0.05 0.05 97 1021.4
20260506135054 7 77 6.4 6.4 0.00 0.05 0.05 96 1021.6
20260506134551 7 109 4.8 6.4 0.00 0.05 0.05 96 1021.6
20260506134046 7 112 4.8 6.4 0.00 0.05 0.05 96 1021.7
20260506133544 7 104 4.8 6.4 0.00 0.05 0.05 96 1021.5
20260506133041 7 109 4.8 6.4 0.00 0.05 0.05 96 1021.4
20260506132538 7 110 6.4 6.4 0.00 0.05 0.05 96 1021.2
20260506132035 7 121 6.4 8.0 0.13 0.05 0.05 96 1021.1
20260506131532 7 99 4.8 6.4 0.13 0.05 0.05 96 1021.2
20260506131028 7 120 6.4 8.0 0.00 0.03 0.03 96 1021.2
20260506130525 7 122 6.4 8.0 0.00 0.03 0.03 96 1021.0
20260506130023 7 112 4.8 6.4 0.00 0.03 0.03 96 1021.1
20260506125521 7 132 8.0 8.0 0.00 0.03 0.03 96 1021.1
20260506125018 7 120 6.4 8.0 0.00 0.03 0.03 95 1021.1
20260506124516 7 94 4.8 6.4 0.00 0.03 0.03 96 1021.1
20260506124014 7 98 6.4 6.4 0.05 0.03 0.03 95 1021.1
20260506123512 7 118 6.4 8.0 0.05 0.03 0.03 95 1021.1
20260506123009 7 123 4.8 6.4 0.00 0.03 0.03 94 1020.9
20260506122506 7 123 4.8 6.4 0.00 0.03 0.03 94 1020.9
20260506122004 7 111 4.8 6.4 0.00 0.03 0.03 94 1020.7
20260506121501 7 115 6.4 6.4 0.00 0.03 0.03 94 1020.8
20260506120957 7 95 6.4 6.4 0.00 0.03 0.03 94 1020.8
20260506120455 7 91 4.8 6.4 0.05 0.03 0.03 93 1020.8
20260506115952 7 93 4.8 6.4 0.05 0.03 0.03 93 1020.9
20260506115450 7 89 4.8 6.4 0.00 0.00 0.00 94 1020.6
20260506114948 7 93 4.8 6.4 0.05 0.00 0.00 93 1020.7
20260506114445 7 115 6.4 6.4 0.05 0.00 0.00 93 1020.7
20260506113944 7 108 4.8 6.4 0.00 0.00 0.00 92 1020.6
20260506113442 7 111 4.8 6.4 0.00 0.00 0.00 91 1020.5
20260506112938 7 115 4.8 6.4 0.00 0.00 0.00 91 1020.5
20260506112436 7 93 3.2 4.8 0.00 0.00 0.00 90 1020.5
20260506111932 7 111 4.8 4.8 0.00 0.00 0.00 90 1020.4
20260506111431 7 101 3.2 4.8 0.00 0.00 0.00 89 1020.4
20260506110927 7 105 4.8 6.4 0.00 0.00 0.00 88 1020.5
20260506110425 7 102 3.2 6.4 0.00 0.00 0.00 88 1020.5
20260506105921 7 85 4.8 6.4 0.00 0.00 0.00 87 1020.3
20260506105418 8 92 6.4 6.4 0.00 0.00 0.00 87 1020.3
20260506104915 8 113 4.8 6.4 0.00 0.00 0.00 87 1020.4
20260506104413 8 114 6.4 6.4 0.00 0.00 0.00 87 1020.4
20260506103911 8 117 6.4 9.7 0.00 0.00 0.00 85 1020.5
20260506103408 8 121 6.4 8.0 0.00 0.00 0.00 85 1020.2
20260506102905 8 89 4.8 8.0 0.00 0.00 0.00 84 1020.3
20260506102403 8 97 6.4 8.0 0.00 0.00 0.00 85 1020.3
20260506101900 8 110 6.4 6.4 0.00 0.00 0.00 84 1020.2
20260506101356 8 115 4.8 6.4 0.00 0.00 0.00 85 1020.3
20260506100854 8 109 6.4 6.4 0.00 0.00 0.00 85 1020.1
20260506100352 8 111 6.4 8.0 0.00 0.00 0.00 84 1020.1
20260506095850 8 97 6.4 8.0 0.00 0.00 0.00 85 1020.1
20260506095348 8 95 6.4 8.0 0.00 0.00 0.00 84 1020.0
20260506094844 8 73 6.4 8.0 0.00 0.00 0.00 84 1019.9
20260506094343 8 91 4.8 6.4 0.00 0.00 0.00 85 1020.0
20260506093840 8 118 4.8 6.4 0.00 0.00 0.00 84 1020.1
20260506093337 8 115 6.4 6.4 0.00 0.00 0.00 84 1019.8
20260506092835 8 123 6.4 6.4 0.00 0.00 0.00 83 1020.1
20260506092333 8 115 6.4 6.4 0.00 0.00 0.00 83 1019.8
20260506091829 8 99 4.8 6.4 0.00 0.00 0.00 83 1019.9
20260506091327 8 96 4.8 6.4 0.00 0.00 0.00 82 1019.9
20260506090825 8 114 6.4 6.4 0.00 0.00 0.00 83 1019.9
20260506090322 8 101 6.4 6.4 0.00 0.00 0.00 82 1019.8
20260506085818 8 99 4.8 6.4 0.00 0.00 0.00 82 1019.8
20260506085315 8 96 6.4 6.4 0.00 0.00 0.00 82 1019.7
20260506084811 8 109 4.8 6.4 0.00 0.00 0.00 80 1019.8
20260506084308 8 93 6.4 6.4 0.00 0.00 0.00 80 1019.8
20260506083805 8 87 6.4 6.4 0.00 0.00 0.00 80 1019.6
20260506083302 8 84 4.8 6.4 0.00 0.00 0.00 80 1019.6
20260506082759 8 116 4.8 6.4 0.00 0.00 0.00 78 1019.6
20260506082255 8 112 6.4 6.4 0.00 0.00 0.00 78 1019.5
20260506081753 8 94 4.8 6.4 0.00 0.00 0.00 79 1019.5
20260506081250 8 123 4.8 6.4 0.00 0.00 0.00 78 1019.5
20260506080748 8 121 6.4 6.4 0.00 0.00 0.00 76 1019.5
20260506080244 8 99 6.4 6.4 0.00 0.00 0.00 75 1019.5
20260506073228 8 95 6.4 11.3 0.00 0.00 0.00 75 1019.4
20260506072725 9 101 4.8 4.8 0.00 0.00 0.00 76 1019.5
20260506072223 8 104 6.4 8.0 0.00 0.00 0.00 74 1019.5
20260506071720 8 83 4.8 4.8 0.00 0.00 0.00 75 1019.5
20260506071218 8 96 4.8 8.0 0.00 0.00 0.00 74 1019.2
20260506070714 8 106 4.8 9.7 0.00 0.00 0.00 75 1019.2
20260506070212 9 85 6.4 8.0 0.00 0.00 0.00 77 1019.3
20260506062148 8 97 4.8 6.4 0.00 0.00 0.00 77 1019.5
20260506061644 8 116 6.4 6.4 0.00 0.00 0.00 78 1019.3
20260506061142 8 122 4.8 6.4 0.00 0.00 0.00 78 1019.4
20260506060640 8 117 4.8 6.4 0.00 0.00 0.00 77 1019.4
20260506060137 8 100 4.8 6.4 0.00 0.00 0.00 77 1019.3
20260506051109 9 79 4.8 6.4 0.00 0.00 0.00 74 1019.1
20260506050607 9 83 6.4 9.7 0.00 0.00 0.00 72 1019.0
20260506050104 9 24 4.8 6.4 0.00 0.00 0.00 73 1018.9
20260506045057 8 80 6.4 8.0 0.00 0.00 0.00 72 1018.8
20260506044556 9 95 3.2 6.4 0.00 0.00 0.00 74 1018.7
20260506044052 9 98 4.8 6.4 0.00 0.00 0.00 74 1018.7
20260506043549 9 123 6.4 6.4 0.00 0.00 0.00 74 1018.6
20260506043047 10 116 6.4 8.0 0.00 0.00 0.00 72 1018.4
20260506042546 10 35 1.6 9.7 0.00 0.00 0.00 71 1018.4
20260506042044 10 35 6.4 9.7 0.00 0.00 0.00 69 1018.3
20260506041542 10 356 9.7 16.1 0.00 0.00 0.00 73 1018.3
20260506041038 10 35 4.8 9.7 0.00 0.00 0.00 70 1018.1
20260506040536 10 358 6.4 8.0 0.00 0.00 0.00 72 1018.2
20260506040032 10 37 12.9 17.7 0.00 0.00 0.00 70 1018.1
20260506035529 10 329 12.9 16.1 0.00 0.00 0.00 70 1018.1
20260506035026 11 16 6.4 9.7 0.00 0.00 0.00 69 1018.0
20260506034524 11 27 4.8 8.0 0.00 0.00 0.00 70 1017.8
20260506034020 11 20 4.8 11.3 0.00 0.00 0.00 69 1018.1
20260506033518 11 352 9.7 14.5 0.00 0.00 0.00 68 1017.8
20260506033015 11 299 11.3 12.9 0.00 0.00 0.00 66 1017.7
20260506032512 11 321 14.5 19.3 0.00 0.00 0.00 67 1017.7
20260506032008 12 221 3.2 14.5 0.00 0.00 0.00 68 1017.6
20260506031506 12 0 4.8 9.7 0.00 0.00 0.00 67 1017.4
20260506031003 12 29 9.7 16.1 0.00 0.00 0.00 67 1017.4
20260506030501 12 6 9.7 12.9 0.00 0.00 0.00 67 1017.5
20260506025958 12 246 4.8 11.3 0.00 0.00 0.00 65 1017.5
20260506025454 12 50 6.4 14.5 0.00 0.00 0.00 68 1017.3
20260506024951 12 359 8.0 16.1 0.00 0.00 0.00 65 1017.3
20260506024448 12 343 6.4 14.5 0.00 0.00 0.00 66 1017.2
20260506023944 12 331 3.2 16.1 0.00 0.00 0.00 65 1017.2
20260506023441 12 359 8.0 14.5 0.00 0.00 0.00 67 1017.2
20260506022937 12 21 8.0 19.3 0.00 0.00 0.00 66 1017.1
20260506022435 12 312 16.1 19.3 0.00 0.00 0.00 65 1017.0
20260506021933 13 4 14.5 20.9 0.00 0.00 0.00 62 1016.9
20260506021430 13 347 6.4 16.1 0.00 0.00 0.00 62 1016.9
20260506020927 14 24 9.7 12.9 0.00 0.00 0.00 60 1016.8
20260506020425 14 18 4.8 9.7 0.00 0.00 0.00 60 1016.8
20260506015922 14 327 6.4 14.5 0.00 0.00 0.00 59 1016.6
20260506015419 15 337 3.2 9.7 0.00 0.00 0.00 57 1016.4
20260506014916 15 20 4.8 8.0 0.00 0.00 0.00 58 1016.5
20260506014413 15 15 9.7 16.1 0.00 0.00 0.00 56 1016.5
20260506013909 15 34 6.4 14.5 0.00 0.00 0.00 58 1016.5
20260506013408 15 56 12.9 16.1 0.00 0.00 0.00 55 1016.2
20260506012903 15 348 6.4 9.7 0.00 0.00 0.00 55 1016.6
20260506012400 14 332 3.2 9.7 0.00 0.00 0.00 60 1016.4
20260506011857 14 289 6.4 9.7 0.00 0.00 0.00 53 1016.5
20260506011354 14 319 9.7 12.9 0.00 0.00 0.00 60 1016.5
20260506010851 14 354 11.3 16.1 0.00 0.00 0.00 61 1016.5
20260506010350 14 281 4.8 14.5 0.00 0.00 0.00 58 1016.4
20260506005846 14 316 8.0 12.9 0.00 0.00 0.00 61 1016.4
20260506005343 15 333 11.3 17.7 0.00 0.00 0.00 58 1016.3
20260506004838 16 7 6.4 9.7 0.00 0.00 0.00 54 1016.3